This is the latest recevied weather packets stored in our database for station/object NK7E. If no packets are shown the sender has not sent any weather packets the latest 10 day(s).
| Time | Temp. | Humidity | Pressure | Rain* | Wind** | Luminosity | Snow |
|---|---|---|---|---|---|---|---|
| 1777758917 | 31.11° C | 14% | 1012.5 hPa | 0 mm | - | 850 W/m² | - |
| 1777758317 | 32.22° C | 13% | 1012.8 hPa | 0 mm | - | 871 W/m² | - |
| 1777757716 | 31.11° C | 13% | 1012.9 hPa | 0 mm | - | 861 W/m² | - |
| 1777757117 | 31.67° C | 17% | 1013.1 hPa | 0 mm | - | 927 W/m² | - |
| 1777756517 | 31.11° C | 14% | 1013 hPa | 0 mm | - | 951 W/m² | - |
| 1777755916 | 31.67° C | 14% | 1013.1 hPa | 0 mm | - | 979 W/m² | - |
| 1777755317 | 30.56° C | 17% | 1013.3 hPa | 0 mm | - | 1012 W/m² | - |
| 1777754717 | 30.56° C | 17% | 1013.5 hPa | 0 mm | - | 1019 W/m² | - |
| 1777754117 | 29.44° C | 19% | 1013.7 hPa | 0 mm | - | 1040 W/m² | - |
| 1777753517 | 30.56° C | 19% | 1013.8 hPa | 0 mm | - | 1015 W/m² | - |
| 1777752917 | 30.56° C | 19% | 1014 hPa | 0 mm | - | 1018 W/m² | - |
| 1777752316 | 30° C | 18% | 1014.1 hPa | 0 mm | - | 1024 W/m² | - |
| 1777751716 | 30° C | 20% | 1014.3 hPa | 0 mm | - | 1024 W/m² | - |
| 1777751117 | 30.56° C | 18% | 1014.3 hPa | 0 mm | - | 1034 W/m² | - |
| 1777750517 | 30.56° C | 19% | 1014.4 hPa | 0 mm | - | 991 W/m² | - |
| 1777749916 | 29.44° C | 20% | 1014.5 hPa | 0 mm | - | 962 W/m² | - |
| 1777749316 | 28.89° C | 19% | 1014.7 hPa | 0 mm | - | 995 W/m² | - |
| 1777748717 | 28.89° C | 20% | 1014.8 hPa | 0 mm | - | 990 W/m² | - |
| 1777748116 | 28.89° C | 22% | 1014.9 hPa | 0 mm | - | 985 W/m² | - |
| 1777747517 | 28.89° C | 22% | 1015.1 hPa | 0 mm | - | 978 W/m² | - |
| 1777746916 | 28.89° C | 22% | 1015.3 hPa | 0 mm | - | 967 W/m² | - |
| 1777746316 | 28.33° C | 25% | 1015.3 hPa | 0 mm | - | 955 W/m² | - |
| 1777745716 | 27.78° C | 25% | 1015.5 hPa | 0 mm | - | 945 W/m² | - |
| 1777745116 | 27.78° C | 26% | 1015.5 hPa | 0 mm | - | 932 W/m² | - |
| 1777744521 | 27.22° C | 26% | 1015.6 hPa | 0 mm | - | 918 W/m² | - |
* Rain latest hour (hover to see other rain measurements)
** Current wind speed in m/s (hover to see current wind gust speed)